Estación de Nueva Imperial

Ultimos registro cada 15 minutos 35
Estación Fecha / Hora Temperatura Humedad Lluvia Velocidad Dirección Radiación Presion
35 Nueva Imperial 09-05-2026 08:30 4,4 93,9 0 0 264 138,1 1018,9
34 Nueva Imperial 09-05-2026 08:15 3 95,1 0 0 264 95,6 1018,6
33 Nueva Imperial 09-05-2026 08:00 2,1 96 0 0 264 48,1 1018,5
32 Nueva Imperial 09-05-2026 07:45 1,5 95,6 0 0 264 5,6 1018,3
31 Nueva Imperial 09-05-2026 07:30 1,9 95 0 0 264 0,6 1018,3
30 Nueva Imperial 09-05-2026 07:15 2,1 94,2 0 0 264 0,6 1018,4
29 Nueva Imperial 09-05-2026 07:00 2,3 94 0 0 260 0,6 1018,4
28 Nueva Imperial 09-05-2026 06:45 2,2 94,1 0 0 248 0,6 1018,4
27 Nueva Imperial 09-05-2026 06:30 2,9 93,6 0 0 240 0,6 1018,4
26 Nueva Imperial 09-05-2026 06:15 3 93,1 0 0 241 0,6 1018,6
25 Nueva Imperial 09-05-2026 06:00 3,1 93,2 0,2 0,3 271 0,6 1018,4
24 Nueva Imperial 09-05-2026 05:45 3,4 93,1 0 0 289 0,6 1018,4
23 Nueva Imperial 09-05-2026 05:30 3,3 93,2 0 0 309 0,6 1018,4
22 Nueva Imperial 09-05-2026 05:15 3,7 93,2 0 0 309 0,6 1018,4
21 Nueva Imperial 09-05-2026 05:00 3,7 94,5 0 0 10 0,6 1018,4
20 Nueva Imperial 09-05-2026 04:45 3,4 95,2 0 0 22 0,6 1018,5
19 Nueva Imperial 09-05-2026 04:30 3,3 95,7 0 0 22 0,6 1018,6
18 Nueva Imperial 09-05-2026 04:15 3,6 96,2 0 0 29 0,6 1018,6
17 Nueva Imperial 09-05-2026 04:00 3,7 96,5 0 0 44 0,6 1018,7
16 Nueva Imperial 09-05-2026 03:45 3,8 97,2 0 0 72 0,6 1018,8
15 Nueva Imperial 09-05-2026 03:30 3,6 98,1 0,2 0 84 0,6 1018,9
14 Nueva Imperial 09-05-2026 03:15 3,7 98,5 0 0 15 0,6 1019
13 Nueva Imperial 09-05-2026 03:00 3,7 98,3 0 0 312 0,6 1019,2
12 Nueva Imperial 09-05-2026 02:45 3,7 98,5 0 0 314 0,6 1019,3
11 Nueva Imperial 09-05-2026 02:30 3,7 98,5 0 0 272 0,6 1019,6
10 Nueva Imperial 09-05-2026 02:15 4 98,5 0 0 289 0,6 1019,6
9 Nueva Imperial 09-05-2026 02:00 3,9 98,3 0 0 306 0,6 1019,7
8 Nueva Imperial 09-05-2026 01:45 4,3 98,2 0 0 306 0,6 1019,7
7 Nueva Imperial 09-05-2026 01:30 4,4 98,2 0,2 0 267 0,6 1019,7
6 Nueva Imperial 09-05-2026 01:15 4,6 98,1 0 0 279 0,6 1019,7
5 Nueva Imperial 09-05-2026 01:00 4,1 97,7 0 0 317 0,6 1019,6
4 Nueva Imperial 09-05-2026 00:45 4,5 97,9 0 0 286 0,6 1019,6
3 Nueva Imperial 09-05-2026 00:30 4,2 97,4 0 0 285 0,6 1019,5
2 Nueva Imperial 09-05-2026 00:15 4,4 97,1 0 0 285 0,6 1019,4
1 Nueva Imperial 09-05-2026 00:00 4,7 97 0 0,3 298 0,6 1019,5